Weather History for Eagle, CO

Change the Weather History Date:

Wednesday, November 28, 2012

  Actual Average Record
Temperature  
Mean Temperature 30 °F -  
Max Temperature 44 °F 36 °F 60 °F (1949)
Min Temperature 15 °F 7 °F -24 °F (1976)
Degree Days  
Heating Degree Days 36    
Moisture  
Dew Point 15 °F    
Average Humidity 71    
Maximum Humidity 86    
Minimum Humidity 27    
Precipitation  
Precipitation 0.00 in - - ()
Sea Level Pressure  
Sea Level Pressure 30.32 in    
Wind  
Wind Speed 2 mph (ESE)    
Max Wind Speed 8 mph    
Max Gust Speed -    
Visibility 10 miles    
Events      
Averages and records for this station are not official NWS values.
T = Trace of Precipitation, MM = Missing Value Source: NWS Daily Summary

Daily Weather History Graph

Daily Weather History Graph

Search for Another Location

Airport:

Trip Planner

Search our weather history database for the weather conditions in past years. The results will help you decide how hot, cold, wet, or windy it might be!

Date:

Astronomy

Nov. 28, 2012 Rise Set
Actual Time 7:06 AM MST 4:44 PM MST
Civil Twilight 6:37 AM MST 5:14 PM MST
Nautical Twilight 6:03 AM MST 5:47 PM MST
Astronomical Twilight 5:31 AM MST 6:20 PM MST
Moon 5:01 PM MST (11/28) 7:06 AM MST (11/28)
Length of Visible Light 10h 37m
Length of Day
9h 37m
Full, 100% of the Moon is Illuminated
Nov 28
Full
Dec 6
Last Quarter
Dec 13
New
Dec 19
First Quarter
Dec 28
Full

Hourly Weather History & Observations

Time (MST) Temp. Windchill Dew Point Humidity Pressure Visibility Wind Dir Wind Speed Gust Speed Precip Events Conditions
12:15 AM 21.2 °F 16.4 °F 15.8 °F 80% 30.38 in 10.0 mi SSE 3.5 mph - N/A   Clear
12:35 AM 19.4 °F 12.8 °F 15.8 °F 86% 30.38 in 10.0 mi ESE 4.6 mph - N/A   Clear
12:55 AM 19.4 °F - 15.8 °F 86% 30.38 in 10.0 mi Calm Calm - N/A   Clear
1:15 AM 19.4 °F 12.8 °F 15.8 °F 86% 30.38 in 10.0 mi East 4.6 mph - N/A   Clear
1:35 AM 19.4 °F 11.5 °F 15.8 °F 86% 30.38 in 10.0 mi East 5.8 mph - N/A   Clear
2:15 AM 19.4 °F - 14.0 °F 80% 30.38 in 10.0 mi Calm Calm - N/A   Clear
2:35 AM 19.4 °F - 14.0 °F 80% 30.39 in 10.0 mi Calm Calm - N/A   Clear
2:55 AM 19.4 °F - 14.0 °F 80% 30.39 in 10.0 mi Calm Calm - N/A   Clear
3:35 AM 17.6 °F - 12.2 °F 79% 30.39 in 10.0 mi Calm Calm - N/A   Clear
4:35 AM 17.6 °F - 14.0 °F 86% 30.39 in 10.0 mi Calm Calm - N/A   Clear
4:55 AM 17.6 °F - 12.2 °F 79% 30.39 in 10.0 mi Calm Calm - N/A   Clear
5:15 AM 15.8 °F - 12.2 °F 86% 30.39 in 10.0 mi Calm Calm - N/A   Clear
5:35 AM 15.8 °F - 12.2 °F 86% 30.39 in 10.0 mi Calm Calm - N/A   Clear
5:55 AM 15.8 °F - 12.2 °F 86% 30.40 in 10.0 mi Calm Calm - N/A   Clear
6:15 AM 15.8 °F 8.6 °F 12.2 °F 86% 30.40 in 10.0 mi East 4.6 mph - N/A   Clear
6:35 AM 15.8 °F 7.2 °F 12.2 °F 86% 30.40 in 10.0 mi East 5.8 mph - N/A   Clear
6:50 AM 15.8 °F 7.2 °F 12.2 °F 86% 30.40 in 10.0 mi Variable 5.8 mph - N/A   Scattered Clouds
6:55 AM 15.8 °F 7.2 °F 12.2 °F 86% 30.40 in 10.0 mi ESE 5.8 mph - N/A   Clear
7:50 AM 15.8 °F - 12.2 °F 86% 30.41 in 10.0 mi Calm Calm - N/A   Scattered Clouds
8:50 AM 21.2 °F - 15.8 °F 80% 30.42 in 10.0 mi Calm Calm - N/A   Scattered Clouds
9:55 AM 24.8 °F - 15.8 °F 69% 30.40 in 10.0 mi Calm Calm - N/A   Mostly Cloudy
10:55 AM 30.2 °F - 15.8 °F 55% 30.37 in 10.0 mi Calm Calm - N/A   Scattered Clouds
11:50 AM 32.0 °F - 10.4 °F 41% 30.32 in 10.0 mi Calm Calm - N/A   Mostly Cloudy
12:50 PM 37.4 °F - 10.4 °F 33% 30.27 in 10.0 mi Calm Calm - N/A   Mostly Cloudy
1:53 PM 41.0 °F - 10.4 °F 29% 30.23 in 10.0 mi Calm Calm - N/A   Mostly Cloudy
2:50 PM 42.8 °F - 10.4 °F 27% 30.20 in 10.0 mi Calm Calm - N/A   Scattered Clouds
3:50 PM 44.6 °F - 12.2 °F 27% 30.19 in 10.0 mi Calm Calm - N/A   Scattered Clouds
4:50 PM 37.4 °F 33.8 °F 15.8 °F 41% 30.19 in 10.0 mi SSE 4.6 mph - N/A   Partly Cloudy
5:52 PM 33.8 °F 27.0 °F 17.6 °F 52% 30.19 in 10.0 mi East 8.1 mph - N/A   Partly Cloudy
6:05 PM 30.2 °F 24.3 °F 19.4 °F 64% 30.20 in - ENE 5.8 mph - N/A   Partly Cloudy
7:51 PM 28.4 °F - 19.4 °F 69% 30.21 in 10.0 mi Calm Calm - N/A   Partly Cloudy
8:50 PM 26.6 °F 22.6 °F 19.4 °F 74% 30.22 in 10.0 mi East 3.5 mph - N/A   Partly Cloudy
9:57 PM 24.8 °F - 17.6 °F 74% 30.23 in 10.0 mi Calm Calm - N/A   Partly Cloudy
10:54 PM 24.8 °F - 17.6 °F 74% 30.22 in 10.0 mi Calm Calm - N/A   Partly Cloudy
11:15 PM 24.8 °F 20.5 °F 17.6 °F 74% 30.22 in 10.0 mi ESE 3.5 mph - N/A   Clear
11:35 PM 24.8 °F - 17.6 °F 74% 30.22 in 10.0 mi Calm Calm - N/A   Clear
11:55 PM 23.0 °F - 17.6 °F 80% 30.22 in 10.0 mi Calm Calm - N/A   Partly Cloudy